Lid_Strength_Index
1 -0 4 5 9 11 13 11 9 9 9 7 6 7 8 7 9 11 1 0 -0 -0 -1 -1 -1 -2 -2 -2 -2 -2 -2 -2 -2 -2 -2 -2 -2 -2 -2 -2 -2 -2 -2 -2 -1 -1 -2 -2 -2
3 3 5 8 11 13 13 11 10 8 7 6 6 6 7 8 5 4 3 0 -0 -0 -1 -1 -1 -1 -2 -1 -2 -2 -2 -2 -2 -2 -2 -2 -2 -2 -2 -2 -2 -2 -2 -2 -1 -1 -1 -1 -1
2 4 6 10 13 13 12 10 9 8 6 7 7 5 6 7 4 3 1 -0 -0 -0 -1 -1 -1 -1 -2 -2 -1 -2 -2 -2 -2 -2 -2 -2 -2 -2 -2 -2 -2 -2 -2 -2 -1 -1 -1 -1 -1
4 5 6 10 12 11 10 9 8 8 7 6 6 8 5 3 3 2 0 0 1 -0 -1 -1 -1 -1 -1 -2 -2 -1 -2 -2 -2 -2 -2 -2 -2 -2 -2 -2 -1 -1 -1 -1 -1 -1 -1 -0 -0
5 6 11 12 11 11 11 8 8 8 8 7 6 8 7 3 1 1 0 1 1 -0 -1 -1 -1 -1 -1 -1 -2 -2 -2 -2 -2 -2 -2 -2 -2 -2 -2 -2 -1 -1 -1 -1 -1 -1 -1 -1 -1
7 8 12 13 11 11 8 7 8 8 7 6 7 7 6 2 2 1 0 1 -0 -0 -1 -1 0 -0 -1 -1 -1 -1 -2 -2 -2 -2 -2 -2 -2 -2 -2 -2 -1 -1 -1 -1 -1 -1 -1 -1 -1
8 9 12 11 11 10 8 7 8 8 7 7 5 8 5 4 2 2 1 1 -0 -1 -1 -1 -1 -0 1 0 -0 -1 -1 -1 -2 -2 -2 -2 -2 -2 -2 -2 -2 -1 -1 -1 -1 -1 -1 -1 -0
8 8 11 10 13 11 10 8 8 7 7 4 4 7 6 4 1 2 1 1 0 -0 -0 -1 -1 -1 -1 -1 1 1 -0 -1 -2 -1 -1 -0 -1 -1 -1 -1 -1 -1 -1 -1 -1 -1 -1 -1 -1
7 10 12 10 11 10 9 10 8 7 6 6 5 5 4 2 2 3 2 2 1 1 -0 -0 -1 -1 -1 -1 -0 1 1 0 0 0 1 1 -1 -1 -1 -0 -1 -2 -2 -2 -2 -1 -2 -2 -1
8 11 11 8 9 9 9 9 9 8 8 7 5 4 3 3 3 4 4 3 2 2 1 0 -0 -1 -1 -1 -1 -1 -1 -1 -1 -1 -1 -1 -1 -1 -1 0 0 -1 -1 -2 -2 -2 -1 -1 -1
9 10 9 9 8 8 9 9 9 9 9 8 7 5 4 4 4 3 3 3 3 2 1 0 0 -0 -1 -1 -1 -1 -1 -1 -1 -1 -1 -1 -1 -1 -1 -1 -1 -1 1 -1 -1 -1 -1 -1 -1
10 9 8 9 10 9 9 8 9 9 8 7 7 4 4 4 4 4 3 3 2 2 1 1 0 0 -0 -0 -0 -1 -1 -1 -1 -0 -0 -0 -0 -0 -0 0 -0 -0 -0 -0 -0 -0 -0 -0 0
11 11 9 9 10 10 9 9 9 8 7 7 6 4 5 4 4 3 2 2 2 2 1 1 1 1 0 1 1 0 -0 -1 -1 -0 -0 0 0 0 0 1 1 1 0 0 0 0 0 0 1
10 10 11 10 10 10 10 10 9 9 7 8 5 5 4 4 4 3 3 3 2 2 1 1 2 1 1 1 1 1 0 -0 -0 -0 -0 -0 0 0 0 0 0 1 1 0 0 0 0 0 1
10 12 12 12 11 10 9 12 11 9 9 9 7 5 5 4 3 4 3 3 2 2 1 2 1 1 1 1 1 1 1 1 -0 0 -0 -0 -0 0 0 0 0 0 -0 0 0 1 1 1 1
12 13 14 12 12 11 10 13 10 10 10 10 10 9 9 6 4 3 2 2 2 1 1 1 1 1 1 1 1 2 2 2 1 1 1 0 0 0 0 0 0 0 0 0 0 1 1 1 1
15 17 16 13 12 12 12 13 11 9 10 10 10 9 10 9 9 7 2 2 2 2 1 1 1 1 1 1 1 1 2 2 2 2 2 1 1 1 1 1 1 1 1 1 1 2 2 2 2
17 17 16 15 13 14 14 13 12 10 10 10 10 10 10 9 8 8 8 4 1 1 1 1 1 1 1 1 1 1 2 2 2 2 2 2 2 2 2 1 1 2 2 2 2 2 2 2 2
14 15 16 15 14 14 15 15 13 13 12 12 10 10 10 10 10 9 9 9 7 2 1 1 1 1 1 1 2 2 2 2 2 2 2 2 2 2 2 2 2 2 2 2 2 2 3 3 3
14 15 16 14 14 15 16 16 14 13 13 12 12 12 11 11 11 11 11 10 10 9 3 1 1 1 1 1 1 1 1 1 0 0 1 1 1 1 2 2 2 2 2 2 2 3 3 3 4
15 16 16 16 14 16 17 18 17 14 13 13 13 14 14 14 13 12 11 11 10 10 10 5 2 1 1 0 1 1 2 2 2 1 1 1 1 1 1 1 1 1 2 2 2 2 3 4 3
15 13 13 14 16 20 17 21 17 15 13 14 14 14 14 13 12 12 12 11 11 10 10 9 7 3 1 0 1 2 2 3 2 1 1 1 1 1 1 1 1 1 1 2 2 2 2 3 4
15 12 13 13 16 18 19 20 18 16 16 15 14 13 13 13 13 13 12 11 10 10 9 10 9 8 5 2 1 1 2 1 1 1 2 2 2 1 1 1 1 1 1 2 2 2 3 3 3
11 13 13 14 16 22 19 20 20 18 16 15 13 13 13 13 13 12 12 11 11 10 9 8 8 8 7 6 3 1 2 2 2 2 2 2 2 1 1 1 1 1 1 1 1 2 2 2 2
11 14 19 20 21 23 19 19 18 16 15 14 13 13 12 13 13 12 12 12 11 11 10 9 9 8 8 7 7 6 6 4 3 2 1 2 2 1 1 1 1 1 1 1 1 1 1 2 2
12 13 17 22 22 21 18 19 18 15 13 12 12 12 12 12 12 12 12 12 12 11 11 10 10 10 9 9 8 7 7 6 6 5 5 4 4 3 1 0 0 0 0 0 0 1 1 1 1
13 15 12 17 24 21 19 18 14 13 13 13 13 13 12 11 11 12 11 11 11 11 11 11 10 10 10 10 9 9 7 7 7 6 6 5 4 3 3 2 2 1 0 0 0 1 1 1 1
11 10 16 15 22 24 19 18 18 14 14 14 13 13 12 11 11 11 10 10 10 10 10 10 10 10 10 9 9 9 8 8 8 8 8 8 7 6 6 5 4 3 2 2 1 1 1 1 1
13 14 13 13 15 20 22 18 15 14 14 14 13 13 13 12 12 12 11 10 10 10 10 11 11 11 11 10 9 9 10 10 9 9 9 9 8 8 7 7 6 5 4 3 2 1 1 1 1
11 13 13 17 18 16 16 16 12 12 12 12 13 13 12 12 12 12 12 11 11 11 11 12 11 11 12 11 11 11 11 11 10 10 10 9 9 9 8 8 7 7 6 5 4 3 2 2 2